ON8GE-13 Weather Reports


time (UTC)temp
F
wind
direction
speed
knots
gust
knots
rain 1hr
in
rain 24hr
in
rain mn
in
humidity
%
barometer
mb
20260505193112 49 6 5.2 9.6 0.04 0.06 0.06 10 1009.7
20260505192107 50 5 4.3 8.7 0.04 0.06 0.06 10 1009.7
20260505191111 50 7 5.2 9.6 0.03 0.06 0.06 10 1009.7
20260505185110 50 7 5.2 10.4 0.02 0.05 0.04 10 1009.6
20260505183104 50 16 5.2 9.6 0.02 0.05 0.03 10 1009.6
20260505180107 50 7 4.3 9.6 0.01 0.05 0.02 10 1009.6
20260505175100 50 1 4.3 8.7 0.00 0.05 0.02 10 1009.7
20260505174100 50 9 5.2 11.3 0.00 0.05 0.02 10 1009.7
20260505173107 50 13 5.2 10.4 0.00 0.05 0.02 10 1009.6
20260505171103 50 23 5.2 8.7 0.00 0.05 0.02 10 1009.6
20260505170103 50 16 6.1 12.2 0.00 0.05 0.02 10 1009.7
20260505165105 50 9 5.2 11.3 0.00 0.05 0.02 10 1009.7
20260505164101 50 7 6.1 10.4 0.00 0.05 0.02 10 1009.7
20260505162100 50 252 4.3 8.7 0.00 0.05 0.02 10 1009.7
20260505160104 50 2 5.2 9.6 0.00 0.05 0.02 10 1009.8
20260505153100 51 17 3.5 7.8 0.00 0.05 0.02 10 1009.8
20260505152102 51 5 4.3 9.6 0.00 0.05 0.02 10 1009.8
20260505124100 51 5 4.3 7.8 0.00 0.09 0.02 10 1010.5
20260505123059 51 9 4.3 8.7 0.00 0.09 0.02 10 1010.5
20260505121056 51 7 4.3 8.7 0.00 0.09 0.02 10 1010.6
20260505120058 51 4 5.2 10.4 0.00 0.09 0.02 10 1010.6
20260505113059 51 354 4.3 8.7 0.00 0.09 0.02 10 1010.8
20260505112059 51 8 4.3 8.7 0.00 0.09 0.02 10 1010.8
20260505111100 51 15 4.3 8.7 0.00 0.09 0.02 10 1010.9
20260505102058 51 1 5.2 8.7 0.00 0.09 0.02 10 1011.0
20260505101102 51 1 5.2 8.7 0.00 0.09 0.02 10 1011.0
20260505100057 51 1 4.3 8.7 0.00 0.09 0.02 10 1011.0
20260505095059 51 353 4.3 9.6 0.00 0.09 0.02 10 1011.0
20260505094100 51 1 4.3 9.6 0.00 0.09 0.02 10 1011.0
20260505092059 51 9 4.3 9.6 0.01 0.09 0.02 10 1011.1
20260505090057 51 4 4.3 8.7 0.01 0.09 0.02 10 1011.1
20260505085057 51 359 4.3 8.7 0.01 0.09 0.02 10 1011.1
20260505083058 51 354 4.3 8.7 0.01 0.09 0.02 10 1011.2
20260505082058 51 354 4.3 9.6 0.00 0.08 0.01 10 1011.2
20260505080057 51 358 3.5 6.1 0.00 0.08 0.01 10 1011.3
20260505075057 51 4 4.3 7.8 0.00 0.08 0.01 10 1011.2
20260505074059 51 1 4.3 9.6 0.00 0.08 0.01 10 1011.3
20260505073058 51 357 4.3 9.6 0.00 0.08 0.01 10 1011.2
20260505072057 51 346 3.5 9.6 0.00 0.08 0.01 10 1011.3
20260505070052 51 351 3.5 7.0 0.00 0.08 0.01 10 1011.2
20260505064054 51 349 3.5 7.8 0.00 0.08 0.01 10 1011.3
20260505062054 51 345 3.5 7.8 0.00 0.08 0.01 10 1011.3
20260505061055 51 354 4.3 10.4 0.00 0.08 0.01 10 1011.3
20260505060059 51 346 4.3 8.7 0.00 0.08 0.01 10 1011.4
20260505055056 51 341 2.6 7.8 0.00 0.08 0.01 10 1011.4
20260505054058 52 329 4.3 9.6 0.00 0.08 0.01 10 1011.3
20260505052054 52 340 3.5 7.8 0.00 0.08 0.01 10 1011.2
20260505051058 52 331 3.5 7.8 0.00 0.08 0.01 10 1011.2
20260505041056 53 220 3.5 8.7 0.00 0.08 0.01 10 1011.3
20260505035058 53 331 3.5 7.8 0.00 0.08 0.01 10 1011.4
20260505031057 54 301 1.7 4.3 0.00 0.08 0.01 10 1011.6
20260505030054 54 322 1.7 4.3 0.00 0.09 0.01 10 1011.6
20260505025056 54 299 1.7 6.1 0.00 0.09 0.01 10 1011.6
20260505024059 54 297 1.7 5.2 0.00 0.09 0.01 10 1011.7
20260505022053 54 317 2.6 6.1 0.00 0.09 0.01 10 1011.7
20260505021055 54 328 2.6 6.1 0.00 0.09 0.01 10 1011.6
20260505020059 54 313 2.6 7.0 0.00 0.09 0.01 10 1011.6
20260505014056 54 329 2.6 5.2 0.00 0.09 0.01 10 1011.7
20260505013054 54 319 2.6 6.1 0.00 0.09 0.01 10 1011.8
20260505012056 54 322 2.6 5.2 0.01 0.09 0.01 10 1011.8
20260505011056 54 193 2.6 7.0 0.01 0.09 0.01 10 1011.9
20260505010057 54 320 3.5 7.0 0.01 0.09 0.01 10 1011.9
20260505005100 54 319 2.6 6.1 0.01 0.09 0.01 10 1011.9
20260505004056 54 313 2.6 5.2 0.01 0.09 0.01 10 1012.0
20260505003057 54 316 2.6 7.0 0.01 0.09 0.01 10 1012.1
20260505002055 54 310 2.6 6.1 0.01 0.09 0.01 10 1012.2
20260505001058 54 312 1.7 5.2 0.00 0.08 0.00 10 1012.2
20260505000100 54 306 2.6 5.2 0.00 0.08 0.00 10 1012.2
20260504235108 54 318 2.6 5.2 0.00 0.08 0.00 10 1012.4
20260504234106 54 287 1.7 4.3 0.00 0.08 0.00 10 1012.4
20260504233107 54 318 1.7 5.2 0.00 0.08 0.00 10 1012.5
20260504232104 54 314 2.6 5.2 0.00 0.08 0.00 10 1012.5
20260504224106 55 332 2.6 5.2 0.00 0.08 0.00 10 1012.8
20260504223107 55 322 2.6 7.8 0.00 0.08 0.00 10 1012.9
20260504222107 55 317 1.7 3.5 0.00 0.09 0.00 10 1012.9
20260504215108 55 352 0.9 2.6 0.00 0.09 0.09 10 1013.0
20260504214113 55 316 0.9 1.7 0.00 0.10 0.09 10 1013.1
20260504213111 56 317 0.9 2.6 0.00 0.11 0.09 10 1013.2
20260504211112 56 331 0.9 2.6 0.00 0.13 0.09 10 1013.3
20260504204111 56 339 0.9 1.7 0.00 0.15 0.09 10 1013.5
20260504203115 56 349 0.9 2.6 0.00 0.16 0.09 10 1013.5
20260504202126 56 3 0.9 1.7 0.00 0.17 0.09 10 1013.5
20260504201118 56 340 0.9 1.7 0.00 0.17 0.09 10 1013.4
20260504200114 56 27 0.0 0.9 0.00 0.17 0.09 10 1013.3